Tracking 26922 objects as of 31-Jan-2023
HD Live streaming from Space Station
objects crossing your sky now

BREEZE-M R/B

Track BREEZE-M R/B now!


NORAD ID: 42750
Int'l Code: 2017-032B
Perigee: 1,682.1 km
Apogee: 34,579.3 km
Inclination: 30.2 °
Period: 636.1 minutes
Semi major axis: 24501 km
RCS: Unknown
Launch date: June 8, 2017
Source: Commonwealth of Independent States (former USSR) (CIS)
Launch site: TYURATAM MISSILE AND SPACE COMPLEX (TTMTR)

Note: This is a ROCKET BODY
Your satellite tracking list
Your tracking list is empty




NASA's NSSDC Master Catalog

Two Line Element Set (TLE):
1 42750U 17032B   23031.37271217  .00000054  00000-0  00000-0 0  9999
2 42750  30.2454 157.9806 6713239  98.7631 336.7038  2.26364162 46753
Source of the keplerian elements: AFSPC